sat.trackr.live / text

‹ back to catalog

QIANFAN-80

NORAD 63166 · 2025-046H

PAYLOAD ACTIVE UNKNOWN

§ Identity

Operator
Country
PRC
Launch date
2025-03-11
Launch site
WSC
Launch vehicle
Mass (kg)
RCS (m²)

External: N2YO · Heavens-Above · Gunter

§ Orbital elements

Epoch: 2026-05-25T04:34:48.953568Z

Period
106.59 min
Inclination
88.9691°
Eccentricity
0.0014175
Mean motion
13.51005287 rev/d
Perigee alt
1,058.0 km
Apogee alt
1,079.1 km
Semi-major
7,446.7 km
B*
4.2746e-5
RAAN
302.8615°
Arg perigee
28.4032°
Mean anomaly
331.7889°
Rev number
6,960

§ Raw data

QIANFAN-801 63166U 25046H   26145.19084437  .00000040  00000+0  42746-4 0  99932 63166  88.9691 302.8615 0014175  28.4032 331.7889 13.51005287 69609

JSON: /api/v1/satellites/63166 · /tle

For live sub-satellite position, see the globe view (requires WebGL).

§ Visibility from observer

Set your observer location to see the next 7 days of passes ≥ 10°. The values pass through the URL so the page stays shareable.

No JS? Fill the form by hand. The geolocation button needs JavaScript.